Location: Baudean
(43.0285°N, 0.1696°E)
Time: 14:41:13
(UTC+00:00)

Daily predictions for brighter satellites

Satellite Brightness Start Highest point End
(mag) Time Altitude Azimuth Time Altitude Azimuth Time Altitude Azimuth
PSLV R/B 3.8 17:32:15 10° SSE 17:36:17 81° ENE 17:40:18 10° N
NOSS 3-1 (C) 4.4 17:34:39 10° SSE 17:38:19 20° ESE 17:42:19 10° ENE
YAOGAN 1 4.1 17:37:53 10° ESE 17:40:42 17° ENE 17:43:32 10° NNE
Cosmos 1455 Rocket 3.7 17:37:51 10° SSE 17:41:50 35° E 17:45:53 10° NNE
SL-19 R/B 4.3 17:36:19 10° NNE 17:42:00 63° ESE 17:47:29 10° S
CZ-4B DEB 4.4 17:37:22 10° SSE 17:42:54 82° WSW 17:48:29 10° NNW
MOS 1-B 4.3 17:37:25 10° SSE 17:43:11 76° ENE 17:48:59 10° NNW
MOS 1-B Rocket 4.5 17:37:28 10° NNE 17:43:39 40° E 17:49:07 10° SSE
Cosmos 405 Rocket 3.5 17:40:22 10° N 17:43:59 33° ENE 17:47:37 10° SE
CZ-4B R/B 3.3 17:40:33 10° SSE 17:46:05 60° ENE 17:51:40 10° N
Cosmos 2150 Rocket 4.5 17:40:59 10° SSW 17:46:24 70° WNW 17:51:48 10° NNE
PAYLOAD B 4.2 17:41:14 10° SSE 17:46:45 85° ENE 17:52:20 10° NNW
H-2A R/B 3.7 17:46:16 10° ENE 17:48:12 13° E 17:50:08 10° ESE
Cosmos 1758 4.2 17:45:11 10° SSW 17:49:04 52° W 17:52:58 10° N
Okean O Rocket 1.8 17:46:37 10° SE 17:50:46 47° ENE 17:54:57 10° N
H-2A R/B 3.5 17:48:59 10° SE 17:52:37 27° ENE 17:56:11 10° N
Cosmos 1544 Rocket 4.4 17:51:54 10° SSE 17:55:42 28° E 17:59:33 10° NNE
Cosmos 1953 2.3 17:51:57 10° S 17:55:57 71° E 18:00:01 10° NNE
Cosmos 2369 4.2 17:52:33 10° SW 17:58:09 63° WNW 18:03:49 10° NNE
CZ-4C R/B 3.3 17:56:11 10° NNE 17:59:23 38° E 18:02:28 10° S
Meteor 1-21 Rocket 4.3 17:54:03 10° N 17:59:56 76° E 18:05:51 10° SSE
ARGOS 3.3 17:56:04 10° SE 18:01:14 50° ENE 18:06:28 10° N
Cosmos 1980 Rocket 2.4 17:56:56 10° SSW 18:02:36 75° WNW 18:08:18 10° NNE
Cosmos 2263 Rocket 2.2 17:57:52 10° NNW 18:03:22 55° ENE 18:08:48 10° SE
CZ-2D R/B 3.6 18:01:01 10° S 18:04:49 69° WSW 18:08:42 10° NNW
Cosmos 2123 Rocket 4.2 17:59:06 10° N 18:05:11 47° ENE 18:11:13 10° SSE
OPS 6432 4.4 18:02:44 10° NNW 18:05:41 52° NE 18:09:15 10° SE
H-2A R/B 2.2 18:00:34 10° SSE 18:05:56 88° ENE 18:11:25 10° NNW
CZ-4 R/B 4.5 18:02:01 10° SSE 18:06:04 55° ENE 18:10:07 10° N
CZ-4 R/B 2.2 18:03:24 10° SE 18:06:49 28° ENE 18:10:20 10° N
Okean-O 4.0 18:05:16 15° E 18:06:59 19° ENE 18:10:04 10° NNE
Okean 1-7 Rocket 3.9 18:06:34 10° N 18:10:45 41° ENE 18:14:56 10° SSE
Cosmos 389 Rocket 4.4 18:13:23 10° SW 18:16:26 31° WNW 18:19:32 10° N
Iridium 4 Rocket 3.3 18:14:56 10° N 18:19:25 57° E 18:24:17 10° SSE
COSMO-SKYMED 1 2.7 18:17:17 10° N 18:21:38 76° WNW 18:25:58 10° SSW
CZ-2C R/B 2.7 18:17:11 10° NNE 18:22:49 84° ESE 18:28:20 10° SSW
Landsat 5 3.8 18:22:43 10° N 18:27:06 73° WNW 18:31:34 10° SSW
X-37B 0.9 18:25:24 10° W 18:28:33 57° N 18:29:33 36° ENE
Cosmos 1892 Rocket 4.3 18:27:26 10° NNW 18:31:49 57° W 18:36:08 10° S
NOSS 2-3 (E) 3.6 18:31:26 10° SSW 18:35:14 48° ESE 18:37:00 29° ENE
Cosmos 1269 Rocket 4.0 18:30:27 10° NNW 18:35:46 89° WSW 18:41:04 10° SSE
Cosmos 1844 Rocket 3.7 18:32:48 10° N 18:37:20 25° NE 18:38:02 24° ENE
USA 229 DEB 4.0 18:33:42 10° S 18:39:20 36° ESE 18:42:06 25° ENE
USA 229 4.1 18:33:49 10° S 18:39:27 35° ESE 18:42:07 26° ENE
Feng Yun 1-1 Rocket 4.2 18:34:43 10° SSE 18:40:14 87° ENE 18:45:57 10° NNW
IRAS Rocket 4.1 18:39:55 10° NNE 18:45:30 86° ESE 18:51:01 10° SSW
NOSS 8 (E) 4.3 18:46:24 10° SW 18:49:59 76° NW 18:50:35 54° NNE
Cosmos 371 Rocket 3.3 18:45:31 10° SSW 18:50:21 85° WNW 18:55:17 10° NNE
Spot 2 4.3 18:47:58 10° S 18:52:01 65° WSW 18:56:15 10° NNW
Cosmos 1605 Rocket 3.9 18:46:04 10° S 18:52:16 71° E 18:58:35 10° NNE
IRS-1C Rocket 4.0 18:47:22 10° SSE 18:52:33 65° ENE 18:57:47 10° N
Cosmos 2251 Rocket 4.0 18:47:43 10° N 18:52:34 36° ENE 18:52:48 36° ENE
Meteor 1-4 Rocket 4.0 18:50:13 10° S 18:51:40 23° S 18:51:40 23° S
Lacrosse 4 Rocket 2.2 18:50:46 10° NNW 18:54:19 35° NE 18:54:19 35° NE
SL-16 R/B 2.1 18:49:23 10° SSW 18:55:03 81° ESE 19:00:46 10° NNE
Cosmos 1626 Rocket 3.4 18:53:36 10° N 18:57:56 90° NW 19:02:15 10° S
CZ-2C R/B 2.8 18:58:48 10° SW 19:01:12 20° SSW 19:01:12 20° SSW
NOSS 3-1 (A) 3.3 18:56:40 10° SSW 19:01:38 49° ESE 19:02:24 46° E
Cosmos 1447 Rocket 4.4 18:57:18 10° N 19:03:23 60° E 19:07:12 23° SSE
Cosmos 1300 3.7 18:59:55 10° SSW 19:03:35 46° WNW 19:07:16 10° N
Tiangong 2.3 19:04:32 10° WSW 19:06:42 38° SW 19:06:42 38° SW
Cosmos 2322 Rocket 2.0 19:04:33 10° SSW 19:10:09 81° ESE 19:14:14 19° NNE
ATLAS 5 CENTAUR R/B 3.6 19:07:34 10° W 19:10:43 22° NW 19:13:59 11° NNE
Meteor 2-10 Rocket 3.5 19:05:58 10° S 19:11:38 85° E 19:17:06 10° NNE
HJ-1C 4.2 19:12:34 48° W 19:12:34 48° W 19:15:31 10° NNW
SL-8 R/B 4.1 19:08:43 10° W 19:13:25 55° NNW 19:14:17 47° NNE
YAOGAN 1 3.5 19:12:16 10° S 19:16:26 47° W 19:20:37 10° NNW
Cosmos 1844 4.3 19:11:26 10° NNW 19:16:17 39° NE 19:16:17 39° NE
NOSS 2-3 (D) 3.7 19:18:31 10° SW 19:22:32 66° NW 19:22:51 63° NNW
Cosmos 2360 Rocket 2.3 19:17:05 10° S 19:21:41 53° SSE 19:21:41 53° SSE
H-2A R/B 2.6 19:20:27 10° N 19:24:28 54° WNW 19:28:31 10° SSW
NOSS 3-1 (C) 3.6 19:23:09 10° SW 19:28:20 62° NW 19:31:33 27° NNE
Orbus 7S? 4.3 19:21:46 10° NW 19:28:54 52° NNE 19:28:54 52° NNE
Cosmos 44 4.2 19:26:52 10° SSW 19:30:33 43° S 19:30:33 43° S
Cosmos 2344 4.3 19:23:03 10° NW 19:32:22 77° NE 19:38:08 38° SE
NOSS 2-3 (C) 4.3 19:31:23 10° WSW 19:35:18 48° NW 19:35:24 48° NW
In-Cosmos 22 Rocket 4.3 19:36:24 10° NNW 19:41:40 65° W 19:42:41 53° SSW
CZ-4 R/B 3.7 19:38:36 10° SSW 19:41:48 23° W 19:45:04 10° NW
Okean-O 3.5 19:42:51 45° WSW 19:43:07 45° W 19:47:23 10° NNW
Cosmos 2263 Rocket 4.4 19:42:43 10° NW 19:46:48 21° W 19:50:53 10° SSW
Cosmos 839 Rocket 4.5 19:46:34 10° NW 19:53:50 62° WSW 19:55:14 50° SSW
Cosmos 1844 Rocket 3.9 20:16:08 10° NNW 20:19:43 38° NW 20:19:43 38° NW
USA 229 DEB 4.3 20:23:53 10° WSW 20:29:38 48° WNW 20:29:38 48° WNW
USA 229 4.3 20:23:58 10° WSW 20:29:39 48° WNW 20:29:39 48° WNW
Lacrosse 4 Rocket 4.4 20:29:47 10° NW 20:30:38 14° WNW 20:30:38 14° WNW
